NOAA 16 DEB, 41161

Orbit data source: Space-Track

NOAA 16 DEB, 41161 is space debris in SSO originally from a launch on Thu, 21 Sep 2000 UTC launched from the Air Force Western Test Range (AFWTR). Debris objects in space refer to the collection of defunct objects orbiting the Earth. Examples of debris include non-operational satellites, rocket bodies, and fragments generated from explosions, collisions, or faulty payload assembly.

Loading next visibility...
Identifier
41161, 2000-055CU
Orbit
SSO
Country
Flag of USUS
Related business
Manufacturer
Unknown
Mission
Spacecraft
Bus & Motor
Unknown
Mass
Unknown
Launch date (UTC)
2000-09-21 (25 years ago)
Launch vehicle
Unknown
Launch site
Air Force Western Test Range (AFWTR)
Object type
Payload
Rocket body
Debris
Shape & HBR
Unknown shape, 0.1 m
Radar Cross Section
Small (<0.1 m²)

Expand to show TLE details & history
Last TLE update: 6 hours ago

TLE from 6 hours ago
0 NOAA 16 DEB
1 41161U 00055CU  26074.56720601  .00002494  00000-0  11626-2 0  9996
2 41161  98.6796 123.6765 0035216  11.7712 348.4281 14.21023256529659
Epoch: 2026-03-15T13:36Z
TLE epoch observation values (Epoch: 2026-03-15T13:36:46.599Z)
Latitude
0.00003°
Longitude
106.31015°
Altitude
799.97 km
Speed
7.466 km/s
True Right ascension
08h 14m 42s
True Declination
0° 00' 00"
Sunlit
Object was in full shadow at epoch
Visualization orbit readout
Latitude
Unknown
Longitude
Unknown
Altitude
Unknown
Speed
Unknown
Apparent Right ascension
Unknown
Apparent Declination
Unknown
Sunlit
N/A
Visualization observer readout
Local Sidereal Time
23:46:36
Azimuth
Unknown
Elevation
Unknown
Doppler factor
Unknown
Orbital elements
Apogee altitude
844.396 km
Perigee altitude
793.704 km
Semi-major axis
7,197.187 km
Eccentricity
0.00352
Inclination
98.6796°
RAAN
123.6765°
Arg. of periapsis
11.7712°
True anomaly
348.3468°
Mean anomaly
348.4281°
Eccentric anomaly
348.38748°
Mean motion
3.55467 °/min
Orbital period
101.28 mins
BSTAR
0.0011626
Loading maneuver chart data...
Computing Atmospheric mass density...
Loading historical data...
Loading historical data...
Loading historical data...
Loading historical data...
Loading historical data...
Loading historical data...
Loading historical data...

Documentation

Showing up to 5 results
|